When you browse on this site, cookies collect data to enhance your experience and personalize the content and advertising you see.
Visit our Privacy Policy to learn more. By continuing to use the site, you agree to this use of cookies and data.
  • In Österreich
  • Länderverzeichnis
  • Für 7 Tage
  • Wassertemperatur
  • Satellitenkarten
  • Wetterkarte
  • News
  • Widgets
  • user-avatar
    Anmelden

    Stündliche Wetter Murzynowo

    Heute, 26 Mai, Sonntag

    Zeit Temperatur Niederschläge Wind Luftdruck Luftfeuchtigkeit
    00:00 +10°C° 0 mm 2 m/S 759 mmHg 80%
    01:00 +10°C° 0 mm 2 m/S 759 mmHg 81%
    02:00 +10°C° 0 mm 2 m/S 759 mmHg 79%
    03:00 +10°C° 0 mm 2 m/S 759 mmHg 77%
    04:00 +11°C° 0 mm 3 m/S 758 mmHg 75%
    05:00 +12°C° 0 mm 3 m/S 758 mmHg 72%
    06:00 +12°C° 0 mm 3 m/S 758 mmHg 69%
    07:00 +13°C° 0 mm 4 m/S 758 mmHg 66%
    08:00 +14°C° 0 mm 4 m/S 758 mmHg 62%
    09:00 +17°C° 0 mm 4 m/S 757 mmHg 58%
    10:00 +18°C° 0 mm 4 m/S 757 mmHg 54%
    11:00 +19°C° 0 mm 5 m/S 757 mmHg 50%
    12:00 +20°C° 0 mm 5 m/S 756 mmHg 47%
    13:00 +22°C° 0 mm 6 m/S 756 mmHg 44%
    14:00 +21°C° 0 mm 6 m/S 756 mmHg 47%
    15:00 +21°C° 0 mm 6 m/S 755 mmHg 49%
    16:00 +21°C° 0 mm 5 m/S 755 mmHg 52%
    17:00 +20°C° 0 mm 5 m/S 755 mmHg 57%
    18:00 +19°C° 0 mm 4 m/S 755 mmHg 62%
    19:00 +18°C° 0 mm 3 m/S 754 mmHg 68%
    20:00 +18°C° 0 mm 2 m/S 754 mmHg 71%
    21:00 +17°C° 0 mm 2 m/S 754 mmHg 75%
    22:00 +16°C° 0 mm 2 m/S 754 mmHg 79%
    23:00 +16°C° 0 mm 3 m/S 754 mmHg 79%

    Morgen, 27 Mai, Montag

    Zeit Temperatur Niederschläge Wind Luftdruck Luftfeuchtigkeit
    00:00 +16°C° 0 mm 3 m/S 754 mmHg 79%
    01:00 +15°C° 0 mm 4 m/S 753 mmHg 78%
    02:00 +15°C° 0 mm 4 m/S 753 mmHg 78%
    03:00 +15°C° 0 mm 4 m/S 753 mmHg 78%
    04:00 +15°C° 0 mm 4 m/S 753 mmHg 77%
    05:00 +17°C° 0 mm 4 m/S 753 mmHg 75%
    06:00 +17°C° 0 mm 5 m/S 753 mmHg 72%
    07:00 +19°C° 0 mm 5 m/S 753 mmHg 70%
    08:00 +20°C° 0.1 mm 5 m/S 753 mmHg 68%
    09:00 +20°C° 0.1 mm 5 m/S 753 mmHg 66%
    10:00 +21°C° 0.1 mm 6 m/S 753 mmHg 65%
    11:00 +21°C° 0.2 mm 6 m/S 753 mmHg 66%
    12:00 +20°C° 0.2 mm 5 m/S 753 mmHg 67%
    13:00 +20°C° 0.2 mm 5 m/S 754 mmHg 68%
    14:00 +20°C° 0 mm 5 m/S 754 mmHg 64%
    15:00 +20°C° 0 mm 5 m/S 754 mmHg 60%
    16:00 +20°C° 0 mm 4 m/S 754 mmHg 56%
    17:00 +19°C° 0 mm 3 m/S 754 mmHg 60%
    18:00 +18°C° 0 mm 3 m/S 754 mmHg 64%
    19:00 +17°C° 0 mm 2 m/S 754 mmHg 69%
    20:00 +16°C° 0 mm 2 m/S 754 mmHg 74%
    21:00 +14°C° 0 mm 2 m/S 754 mmHg 80%
    22:00 +13°C° 0 mm 2 m/S 754 mmHg 85%
    23:00 +13°C° 0 mm 2 m/S 754 mmHg 83%

    übermorgen, 28 Mai, Dienstag

    Zeit Temperatur Niederschläge Wind Luftdruck Luftfeuchtigkeit
    00:00 +14°C° 0 mm 2 m/S 754 mmHg 80%
    01:00 +14°C° 0 mm 2 m/S 754 mmHg 78%
    02:00 +13°C° 0.2 mm 2 m/S 753 mmHg 82%
    03:00 +13°C° 0.2 mm 1 m/S 753 mmHg 85%
    04:00 +13°C° 0.2 mm 1 m/S 753 mmHg 89%
    05:00 +13°C° 0.7 mm 1 m/S 753 mmHg 90%
    06:00 +13°C° 0.7 mm 1 m/S 752 mmHg 91%
    07:00 +13°C° 0.7 mm 1 m/S 752 mmHg 92%
    08:00 +13°C° 1.3 mm 2 m/S 752 mmHg 92%
    09:00 +13°C° 1.3 mm 2 m/S 752 mmHg 92%
    10:00 +13°C° 1.3 mm 2 m/S 752 mmHg 92%
    11:00 +13°C° 1.5 mm 2 m/S 752 mmHg 91%
    12:00 +13°C° 1.5 mm 2 m/S 752 mmHg 90%
    13:00 +13°C° 1.5 mm 2 m/S 752 mmHg 90%
    14:00 +13°C° 0.4 mm 2 m/S 752 mmHg 88%
    15:00 +13°C° 0.4 mm 1 m/S 752 mmHg 86%
    16:00 +13°C° 0.4 mm 1 m/S 752 mmHg 84%
    17:00 +13°C° 0 mm 1 m/S 752 mmHg 85%
    18:00 +13°C° 0 mm 1 m/S 752 mmHg 86%
    19:00 +13°C° 0 mm 1 m/S 752 mmHg 88%
    20:00 +12°C° 0 mm 1 m/S 752 mmHg 89%
    21:00 +12°C° 0 mm 1 m/S 753 mmHg 91%
    22:00 +11°C° 0 mm 1 m/S 753 mmHg 93%
    23:00 +11°C° 0 mm 1 m/S 753 mmHg 93%

    29 Mai, Mittwoch

    Zeit Temperatur Niederschläge Wind Luftdruck Luftfeuchtigkeit
    00:00 +10°C° 0 mm 1 m/S 753 mmHg 93%
    01:00 +10°C° 0 mm 1 m/S 753 mmHg 94%
    02:00 +10°C° 0 mm 1 m/S 753 mmHg 94%
    03:00 +10°C° 0 mm 1 m/S 753 mmHg 94%
    04:00 +9°C° 0 mm 1 m/S 753 mmHg 95%
    05:00 +10°C° 0 mm 2 m/S 753 mmHg 91%
    06:00 +13°C° 0 mm 2 m/S 754 mmHg 87%
    07:00 +14°C° 0 mm 2 m/S 754 mmHg 83%
    08:00 +15°C° 0.3 mm 2 m/S 754 mmHg 79%
    09:00 +17°C° 0.3 mm 3 m/S 754 mmHg 75%
    10:00 +18°C° 0.3 mm 3 m/S 754 mmHg 70%
    11:00 +18°C° 0.5 mm 3 m/S 755 mmHg 69%
    12:00 +18°C° 0.5 mm 4 m/S 755 mmHg 68%
    13:00 +19°C° 0.5 mm 4 m/S 755 mmHg 67%
    14:00 +17°C° 0.4 mm 5 m/S 756 mmHg 71%
    15:00 +16°C° 0.4 mm 5 m/S 756 mmHg 74%
    16:00 +15°C° 0.4 mm 6 m/S 756 mmHg 78%
    17:00 +14°C° 0 mm 5 m/S 757 mmHg 76%
    18:00 +13°C° 0 mm 5 m/S 758 mmHg 75%
    19:00 +12°C° 0 mm 4 m/S 758 mmHg 73%
    20:00 +11°C° 0 mm 3 m/S 759 mmHg 75%
    21:00 +9°C° 0 mm 3 m/S 759 mmHg 77%
    22:00 +8°C° 0 mm 2 m/S 760 mmHg 79%
    23:00 +8°C° 0 mm 2 m/S 760 mmHg 81%

    30 Mai, Donnerstag

    Zeit Temperatur Niederschläge Wind Luftdruck Luftfeuchtigkeit
    00:00 +7°C° 0 mm 2 m/S 761 mmHg 83%
    01:00 +7°C° 0 mm 2 m/S 761 mmHg 85%
    02:00 +6°C° 0 mm 2 m/S 762 mmHg 87%
    03:00 +6°C° 0 mm 2 m/S 762 mmHg 89%
    04:00 +6°C° 0 mm 1 m/S 763 mmHg 91%
    05:00 +8°C° 0 mm 1 m/S 763 mmHg 81%
    06:00 +10°C° 0 mm 1 m/S 763 mmHg 71%
    07:00 +12°C° 0 mm 1 m/S 763 mmHg 61%
    08:00 +14°C° 0 mm 1 m/S 763 mmHg 56%
    09:00 +15°C° 0 mm 2 m/S 763 mmHg 50%
    10:00 +17°C° 0 mm 2 m/S 763 mmHg 45%
    11:00 +18°C° 0 mm 2 m/S 763 mmHg 43%
    12:00 +18°C° 0 mm 2 m/S 763 mmHg 42%
    13:00 +19°C° 0 mm 2 m/S 763 mmHg 41%
    14:00 +19°C° 0 mm 2 m/S 762 mmHg 42%
    15:00 +19°C° 0 mm 2 m/S 762 mmHg 44%
    16:00 +19°C° 0 mm 3 m/S 762 mmHg 46%
    17:00 +18°C° 0 mm 2 m/S 762 mmHg 53%
    18:00 +17°C° 0 mm 2 m/S 761 mmHg 60%
    19:00 +16°C° 0 mm 2 m/S 761 mmHg 67%
    20:00 +16°C° 0 mm 2 m/S 761 mmHg 69%
    21:00 +14°C° 0 mm 3 m/S 761 mmHg 70%
    22:00 +14°C° 0 mm 3 m/S 761 mmHg 71%
    23:00 +14°C° 0 mm 4 m/S 761 mmHg 73%

    31 Mai, Freitag

    Zeit Temperatur Niederschläge Wind Luftdruck Luftfeuchtigkeit
    00:00 +14°C° 0 mm 4 m/S 760 mmHg 74%
    01:00 +14°C° 0 mm 4 m/S 760 mmHg 75%
    02:00 +14°C° 0.1 mm 4 m/S 760 mmHg 80%
    03:00 +13°C° 0.1 mm 5 m/S 759 mmHg 84%
    04:00 +13°C° 0.1 mm 5 m/S 759 mmHg 89%
    05:00 +13°C° 0.4 mm 5 m/S 760 mmHg 90%
    06:00 +13°C° 0.4 mm 5 m/S 760 mmHg 92%
    07:00 +13°C° 0.4 mm 5 m/S 760 mmHg 93%
    08:00 +13°C° 0.2 mm 5 m/S 761 mmHg 87%
    09:00 +13°C° 0.2 mm 5 m/S 762 mmHg 81%
    10:00 +13°C° 0.2 mm 5 m/S 763 mmHg 75%
    11:00 +14°C° 0 mm 5 m/S 764 mmHg 62%
    12:00 +16°C° 0 mm 5 m/S 764 mmHg 50%
    13:00 +17°C° 0 mm 5 m/S 765 mmHg 37%
    14:00 +17°C° 0 mm 5 m/S 765 mmHg 37%
    15:00 +18°C° 0 mm 4 m/S 766 mmHg 37%
    16:00 +18°C° 0 mm 4 m/S 766 mmHg 38%
    17:00 +17°C° 0 mm 3 m/S 766 mmHg 43%
    18:00 +16°C° 0 mm 2 m/S 766 mmHg 49%
    19:00 +15°C° 0 mm 1 m/S 767 mmHg 55%
    20:00 +14°C° 0 mm 1 m/S 767 mmHg 59%
    21:00 +12°C° 0 mm 1 m/S 767 mmHg 62%
    22:00 +10°C° 0 mm 1 m/S 767 mmHg 66%
    23:00 +11°C° 0 mm 1 m/S 767 mmHg 64%
    Mehr zeigen